Flag for Italy Weather past 2 weeks in Firenze, Italy

Now
66 °F

Scattered clouds.


Feels Like: 66 °F
Forecast: 65 / 83 °F
Wind: No wind

Location: Florence / Peretola

Current Time: Sep 3, 2015 at 9:07:12 AM

Latest Report: Sep 3, 2015 at 8:20 AM


Visibility: N/A

Pressure: 29.95 "Hg

Humidity: 78%

Dew point: 59 °F

Location of FirenzeLocation

Historic Weather in Firenze — Graph

°F

Firenze temperature yesterday

Maximum temperature yesterday: 88 °F (at 2:50 PM)
Minimum temperature yesterday: 64 °F (at 2:20 AM)
Average temperature yesterday: 75 °F

Past Weeks' High & Low Weather Summary

 TemperatureHumidityPressure
High95 °F (Aug 29, 3:20 PM)100% (Aug 20, 1:20 AM)30.18 "Hg (Aug 20, 1:20 AM)
Low59 °F (Aug 20, 3:20 AM)21% (Aug 31, 4:20 PM)29.86 "Hg (Aug 24, 3:20 AM)
Average75 °F63%30.01 "Hg
* Reported Aug 19 7:20 AM — Sep 3 7:50 AM, Firenze, Weather by CustomWeather, © 2015

Note: Actual official high and low records may vary slightly from our data, if they occured in-between our weather recording intervals... More about our weather records

Advertising

Firenze weather history for previous 24 hours

 ConditionsComfort  
Time TempWeatherWind HumidityBarometerVisibility
7:50 AM
Thu, Sep 3
64 °FSunny.2 mph83%29.95 "Hg10 mi
7:20 AM63 °FPassing clouds.3 mph88%29.92 "HgN/A
6:50 AM61 °FClear.2 mph94%29.92 "Hg10 mi
6:20 AM61 °FClear.2 mph88%29.92 "Hg10 mi
5:50 AM63 °FClear.2 mph83%29.92 "Hg10 mi
5:20 AM64 °FClear.1 mph78%29.92 "Hg10 mi
4:50 AM64 °FClear.2 mph78%29.92 "Hg10 mi
4:20 AM63 °FClear.5 mph83%29.92 "Hg10 mi
3:50 AM64 °FClear.2 mph78%29.95 "Hg10 mi
3:20 AM64 °FClear.5 mph78%29.92 "Hg10 mi
2:50 AM64 °FClear.5 mph78%29.95 "Hg10 mi
2:20 AM64 °FClear.5 mph78%29.95 "Hg10 mi
1:50 AM64 °FClear.3 mph78%29.95 "Hg10 mi
1:20 AM66 °FClear.5 mph73%29.95 "Hg10 mi
12:50 AM66 °FPassing clouds.6 mph73%29.95 "HgN/A
12:20 AM68 °FPassing clouds.2 mph69%29.95 "HgN/A
11:50 PM
Wed, Sep 2
68 °FPassing clouds.2 mph69%29.95 "HgN/A
11:20 PM68 °FPassing clouds.3 mph69%29.92 "HgN/A
10:50 PM68 °FPassing clouds.2 mph69%29.92 "HgN/A
10:20 PM72 °FPassing clouds.3 mph61%29.92 "HgN/A
9:50 PM73 °FClear.6 mph57%29.92 "Hg10 mi
9:20 PM75 °FClear.7 mph50%29.92 "Hg10 mi
8:50 PM75 °FClear.8 mph44%29.92 "Hg10 mi
8:20 PM77 °FPassing clouds.7 mph39%29.89 "HgN/A
7:50 PM79 °FPartly sunny.8 mph39%29.89 "HgN/A
7:20 PM79 °FScattered clouds.12 mph42%29.89 "HgN/A
6:50 PM81 °FSunny.13 mph42%29.89 "Hg10 mi
6:20 PM82 °FPassing clouds.15 mph45%29.89 "HgN/A
5:50 PM84 °FPassing clouds.15 mph40%29.86 "HgN/A
5:20 PM84 °FPassing clouds.12 mph43%29.86 "HgN/A
4:50 PM86 °FPassing clouds.14 mph38%29.86 "HgN/A
4:20 PM86 °FPassing clouds.12 mph35%29.86 "HgN/A
3:50 PM86 °FPassing clouds.12 mph40%29.86 "HgN/A
3:20 PM86 °FScattered clouds.10 mph46%29.86 "HgN/A
2:50 PM88 °FScattered clouds.10 mph43%29.86 "HgN/A
2:20 PM86 °FScattered clouds.8 mph46%29.86 "HgN/A
1:50 PM86 °FScattered clouds.7 mph43%29.89 "HgN/A
1:20 PM84 °FScattered clouds.6 mph45%29.89 "HgN/A
12:50 PM84 °FScattered clouds.6 mph45%29.89 "HgN/A
12:20 PM82 °FScattered clouds.6 mph51%29.89 "HgN/A
11:50 AM82 °FPassing clouds.3 mph55%29.92 "HgN/A
11:20 AM81 °FSunny.2 mph54%29.92 "Hg10 mi
10:50 AM79 °FSunny.2 mph58%29.92 "Hg10 mi
10:20 AM77 °FSunny.No wind65%29.92 "Hg10 mi
9:50 AM73 °FSunny.2 mph69%29.89 "Hg10 mi
9:20 AM73 °FSunny.1 mph69%29.92 "Hg10 mi
Weather by CustomWeather, © 2015

See weather overviewHow to use our weather pages